Regional Weather Roundup
Issued by NWS

Home | Current Version | Previous Version | Graphics & Text | Print | Product List | Glossary Off
Versions: 1 2 3 4 5 6 7 8 9 10 11 12 13 14 15 16 17 18 19 20 21 22 23 24 25 26 27 28 29 30 31 32 33 34 35 36 37 38 39 40 41 42 43 44 45 46 47 48 49 50

000
ASUS43 KMKX 220111
RWRWI

WISCONSIN REGIONAL WEATHER ROUNDUP
NATIONAL WEATHER SERVICE MILWAUKEE/SULLIVAN WI
800 PM CDT MON JUL 21 2014

NOTE: "FAIR" INDICATES FEW OR NO CLOUDS BELOW 12,000 FEET WITH NO
SIGNIFICANT WEATHER AND/OR OBSTRUCTIONS TO VISIBILITY.

WIZ001-002-006>008-014>016-023>028-220200-
NORTHWEST WISCONSIN

CITY           SKY/WX    TMP DP  RH WIND       PRES   REMARKS
SUPERIOR ARPT  PTCLDY    85  75  72 S8        29.83S HX  92
ASHLAND        CLEAR     83  73  72 S8        29.88S HX  89
HAYWARD        PTCLDY    82  74  76 S10       29.91S HX  88
SIREN          PTCLDY    83  72  69 S9        29.87F HX  89
RICE LAKE      MOCLDY    82  71  68 SE8       29.92S HX  86
LADYSMITH      CLEAR     82  72  71 S7        29.95S HX  86
EAU CLAIRE     MOCLDY    84  71  65 S12       29.92R HX  89
MENOMONIE      CLOUDY    82  71  69 SE10      29.90F HX  87
NEW RICHMOND   CLOUDY    82  71  69 SE8       29.88F HX  87
OSCEOLA        PTCLDY    83  74  73 SE9       29.89F HX  90
$$

WIZ003>005-009-010-017-018-220200-
NORTH CENTRAL WISCONSIN

CITY           SKY/WX    TMP DP  RH WIND       PRES   REMARKS
WOODRUFF       CLEAR     80  71  74 S9        29.98S HX  83
RHINELANDER    MOCLDY    79  70  74 S3        30.00F HX  82
EAGLE RIVER    CLEAR     78  68  69 S6        29.98F HX  80
LAND O LAKES   PTCLDY    79  69  71 S5        29.99F HX  82
PHILLIPS       CLEAR     80  72  76 S9        29.95F HX  84
TOMAHAWK       CLEAR     78  70  76 CALM      29.98F HX  80
MEDFORD        CLEAR     78  71  78 S9        29.97S HX  80
MERRILL        CLOUDY    80  71  74 S3        29.98S HX  84
$$

WIZ029-030-035-036-043>047-220200-
CENTRAL WISCONSIN

CITY           SKY/WX    TMP DP  RH WIND       PRES   REMARKS
WAUSAU         PTCLDY    82  69  64 S12       29.97S HX  85
MOSINEE        PTCLDY    79  72  78 S7        30.00  HX  82
MARSHFIELD     CLEAR     79  69  71 S7        29.97F HX  81
STEVENS POINT  PTCLDY    81  66  61 S10       29.99S HX  83
WAUPACA        CLEAR     83  68  58 S6        29.99S HX  86
WAUTOMA        CLEAR     83  69  62 S7        29.99F HX  86
WISC RAPIDS    PTCLDY    83  66  56 S7        29.99S HX  85
CAMP DOUGLAS   CLEAR     81  70  69 SE5       29.97S HX  84
$$

WIZ011>013-019>022-031-037>040-048>050-220200-
NORTHEAST WISCONSIN

CITY           SKY/WX    TMP DP  RH WIND       PRES   REMARKS
ANTIGO         CLOUDY    76  70  81 S6        30.01F
STURGEON BAY   MOCLDY    72  61  68 S14       30.02S
GREEN BAY      CLEAR     82  67  60 S12       30.00S HX  84
MANITOWOC      CLEAR     72  63  73 S10       30.03S
APPLETON       PTCLDY    81  64  57 S9        30.01  HX  82
CLINTONVILLE   CLEAR     81  66  61 S6        29.98F HX  83
OSHKOSH        CLEAR     79  70  74 S8        30.00S HX  82
$$

WIZ032>034-041-042-053>061-220200-
SOUTHWEST WISCONSIN

CITY           SKY/WX    TMP DP  RH WIND       PRES   REMARKS
LA CROSSE      CLEAR     85  69  58 S13       29.92R HX  89
SPARTA         CLEAR     82  66  60 SE6       29.95F HX  84
VIROQUA        FAIR      79  67  66 SE9       29.97F HX  82
BOSCOBEL       CLEAR     83  68  60 S7        29.96F HX  86
PRAIRIE DU CHI CLEAR     83  67  58 SE7       29.95S HX  86
PLATTEVILLE    FAIR      79  70  73 SE7       30.01S HX  82
$$

WIZ056-057-062-063-064-067-068-220200-
SOUTH CENTRAL WISCONSIN

CITY           SKY/WX    TMP DP  RH WIND       PRES   REMARKS
BARABOO/DELLS  CLEAR     80  66  61 S5        29.99S HX  82
LONE ROCK      CLEAR     85  69  58 SE7       29.98S HX  89
WATERTOWN      CLEAR     78  69  73 S5        30.02S HX  81
MADISON        PTCLDY    83  68  60 S13       30.00F HX  86
MIDDLETON      FAIR      82  66  58 S9        30.01S HX  84
MONROE         CLEAR     79  68  69 S10       30.02F HX  81
JANESVILLE     PTCLDY    82  66  57 S7        30.02F HX  85
$$

WIZ051-052-058>065-066-070>072-220200-
SOUTHEAST WISCONSIN

CITY           SKY/WX    TMP DP  RH WIND       PRES   REMARKS
MILWAUKEE      PTCLDY    77  62  59 S10       30.04S
WAUKESHA       CLEAR     79  64  61 S5        30.05F HX  81
MILWAUKEE/TIMM PTCLDY    81  61  50 S9        30.04S HX  81
RACINE         CLEAR     76  64  66 S10       30.06S
BURLINGTON     CLEAR     74  67  76 S5        30.05S
KENOSHA        CLEAR     78  65  63 S7        30.06R HX  80
FOND DU LAC    CLEAR     79  67  66 MISG      30.01S HX  81
SHEBOYGAN      CLEAR     75  61  61 S10G18    30.03S
WEST BEND      CLEAR     79  63  57 S7        30.03S HX  80
JUNEAU         CLEAR     79  53  40 SE9       30.03S
$$

LSZ147-162-220200-
LAKE SUPERIOR

STATION/POSITION TIME  TEMP    WIND        PRES    WAVE
                       AIR SEA DIR/SP/G            HT/PER
                 (UTC) (F)     (DEG/KT/KT) (MB)    (FT/S)
W MID LAKE BUOY  0050   53 43  140/  8/  8 1011.6S   0
PORT WING        0040   86     180/  8/ 11 1010.5F
SAXON HARBOR     0000          200/  2/  7 1011.9F
$$

LMZ867-665-643>646-220200-
LAKE MICHIGAN

STATION/POSITION TIME  TEMP    WIND        PRES    WAVE
                       AIR SEA DIR/SP/G            HT/PER
                 (UTC) (F)     (DEG/KT/KT) (MB)    (FT/S)
N MID LAKE BUOY  0050   64 58  220/ 16/ 19 1015.4F   3/ 5
NORTHPORT PIER   0000   72     170/  7/ 15 1015.9S
KEWAUNEE LAKESHO 0000   61     180/ 13/ 16 1017.5F
SHEBOYGAN LAKESH 0100   71     180/ 15/ 16 1016.8F
PORT WASHINGTON  0000   68     200/  6/ 11 1017.6S
ATWATER BUOY     0100   62     170/ 10     1018.0F
MILWAUKEE LAKESH 0000   67     150/ 15/ 15   N/A
S MID LAKE BUOY  0050   72 70  160/  8/ 10 1017.6F   0
KENOSHA   LAKESH 0100   74     170/ 13/ 15   N/A
$$

TC  - TEMPERATURE IN CELSIUS
VSB - VISIBILITY IN STATUTE MILES
WCI - WIND CHILL INDEX
HX  - HEAT INDEX



USA.gov is the U.S. government's official web portal to all federal, state and local government web resources and services.